This is the latest recevied weather packets stored in our database for station/object WA9NNN-10. If no packets are shown the sender has not sent any weather packets the latest 10 day(s).
| Time | Temp. | Humidity | Pressure | Rain* | Wind** | Luminosity | Snow |
|---|---|---|---|---|---|---|---|
| 1777963897 | 16.67° C | 40% | 1002.3 hPa | 0 mm | - | - | - |
| 1777963596 | 16.67° C | 40% | 1002.3 hPa | 0 mm | - | - | - |
| 1777963298 | 16.67° C | 40% | 1002.2 hPa | 0 mm | - | - | - |
| 1777962997 | 16.67° C | 40% | 1002.2 hPa | 0 mm | - | - | - |
| 1777962697 | 16.67° C | 39% | 1002.2 hPa | 0 mm | - | - | - |
| 1777962397 | 16.67° C | 39% | 1002 hPa | 0 mm | - | - | - |
| 1777962097 | 16.67° C | 40% | 1001.9 hPa | 0 mm | - | - | - |
| 1777961797 | 16.67° C | 39% | 1001.8 hPa | 0 mm | - | - | - |
| 1777961497 | 16.67° C | 40% | 1001.8 hPa | 0 mm | - | - | - |
| 1777961196 | 16.67° C | 40% | 1001.9 hPa | 0 mm | - | - | - |
| 1777960898 | 16.67° C | 40% | 1002 hPa | 0 mm | - | - | - |
| 1777960597 | 16.67° C | 41% | 1002 hPa | 0 mm | - | - | - |
| 1777960297 | 16.67° C | 42% | 1002 hPa | 0 mm | - | - | - |
| 1777959996 | 16.67° C | 42% | 1002.1 hPa | 0 mm | - | - | - |
| 1777959697 | 16.67° C | 43% | 1002 hPa | 0 mm | - | - | - |
| 1777959396 | 16.67° C | 45% | 1001.9 hPa | 0 mm | - | - | - |
| 1777959097 | 16.67° C | 46% | 1001.8 hPa | 0 mm | - | - | - |
| 1777958796 | 16.67° C | 49% | 1001.5 hPa | 0 mm | - | - | - |
| 1777958497 | 16.67° C | 53% | 1001.4 hPa | 0 mm | - | - | - |
| 1777958197 | 16.67° C | 57% | 1001.3 hPa | 0 mm | - | - | - |
| 1777957897 | 16.67° C | 60% | 1001.3 hPa | 0 mm | - | - | - |
| 1777957596 | 16.67° C | 62% | 1001.1 hPa | 0 mm | - | - | - |
| 1777957297 | 16.67° C | 62% | 1000.9 hPa | 0 mm | - | - | - |
| 1777956997 | 17.22° C | 65% | 1000.7 hPa | 0 mm | - | - | - |
| 1777956698 | 17.22° C | 66% | 1000.7 hPa | 0 mm | - | - | - |
* Rain latest hour (hover to see other rain measurements)
** Current wind speed in m/s (hover to see current wind gust speed)